H1 CPF 2 NER 2023 6 17 9 168 01 glonass146 H2 2216101 9146 54377 2023 6 17 0 0 0 2023 6 20 23 45 0 900 1 1 0 0 0 1 H9 10 0 60112 0.00000 0 12129724.499 -17153581.476 -14480846.639 10 0 60112 900.00000 0 13337876.001 -18248921.506 -11844885.862 10 0 60112 1800.00000 0 14209496.884 -19204965.768 -8979129.254 10 0 60112 2700.00000 0 14753603.955 -19963716.741 -5939222.474 10 0 60112 3600.00000 0 14991463.596 -20472151.027 -2784154.424 10 0 60112 4500.00000 0 14955456.832 -20684550.776 424885.340 10 0 60112 5400.00000 0 14687490.233 -20564545.208 3625689.598 10 0 60112 6300.00000 0 14237020.651 -20086776.732 6756234.094 10 0 60112 7200.00000 0 13658777.675 -19238121.893 9755872.773 10 0 60112 8100.00000 0 13010280.084 -18018415.983 12566504.896 10 0 60112 9000.00000 0 12349250.849 -16440650.764 15133692.025 10 0 60112 9900.00000 0 11731039.227 -14530636.544 17407703.916 10 0 60112 10800.00000 0 11206157.953 -12326142.007 19344473.877 10 0 60112 11700.00000 0 10818038.564 -9875546.557 20906445.976 10 0 60112 12600.00000 0 10601098.723 -7236059.985 22063298.453 10 0 60112 13500.00000 0 10579202.464 -4471581.954 22792530.007 10 0 60112 14400.00000 0 10764577.987 -1650288.464 23079898.048 10 0 60112 15300.00000 0 11157238.839 1157956.188 22919700.512 10 0 60112 16200.00000 0 11744933.490 3884256.267 22314895.550 10 0 60112 17100.00000 0 12503626.567 6463301.512 21277056.136 10 0 60112 18000.00000 0 13398492.887 8835836.624 19826159.521 10 0 60112 18900.00000 0 14385384.038 10950881.590 17990214.387 10 0 60112 19800.00000 0 15412707.337 12767610.988 15804731.528 10 0 60112 20700.00000 0 16423639.350 14256814.084 13312046.989 10 0 60112 21600.00000 0 17358581.656 15401874.720 10560509.526 10 0 60112 22500.00000 0 18157755.751 16199229.768 7603547.208 10 0 60112 23400.00000 0 18763827.468 16658286.678 4498630.735 10 0 60112 24300.00000 0 19124449.421 16800803.512 1306153.525 10 0 60112 25200.00000 0 19194612.933 16659757.630 -1911749.351 10 0 60112 26100.00000 0 18938708.527 16277751.190 -5092419.578 10 0 60112 27000.00000 0 18332206.247 15705021.483 -8173906.553 10 0 60112 27900.00000 0 17362883.083 14997141.240 -11096185.651 10 0 60112 28800.00000 0 16031544.109 14212507.429 -13802338.698 10 0 60112 29700.00000 0 14352205.596 13409726.076 -16239672.411 10 0 60112 30600.00000 0 12351731.353 12645005.077 -18360752.047 10 0 60112 31500.00000 0 10068936.971 11969666.373 -20124329.384 10 0 60112 32400.00000 0 7553199.211 11427883.481 -21496146.654 10 0 60112 33300.00000 0 4862628.697 11054740.446 -22449600.845 10 0 60112 34200.00000 0 2061882.435 10874694.224 -22966255.784 10 0 60112 35100.00000 0 -780292.451 10900505.080 -23036192.693 10 0 60112 36000.00000 0 -3593681.361 11132679.481 -22658193.193 10 0 60112 36900.00000 0 -6309282.179 11559448.144 -21839752.072 10 0 60112 37800.00000 0 -8861931.481 12157279.201 -20596920.426 10 0 60112 38700.00000 0 -11192768.529 12891903.937 -18953982.989 10 0 60112 39600.00000 0 -13251435.592 13719810.998 -16942976.583 10 0 60112 40500.00000 0 -14997924.428 14590145.439 -14603059.549 10 0 60112 41400.00000 0 -16403993.668 15446932.078 -11979744.790 10 0 60112 42300.00000 0 -17454099.836 16231529.175 -9124011.562 10 0 60112 43200.00000 0 -18145805.078 16885208.931 -6091313.466 10 0 60112 44100.00000 0 -18489646.516 17351756.125 -2940501.928 10 0 60112 45000.00000 0 -18508474.521 17579975.580 267313.859 10 0 60112 45900.00000 0 -18236289.290 17526003.088 3469948.517 10 0 60112 46800.00000 0 -17716625.908 17155322.749 6605340.812 10 0 60112 47700.00000 0 -17000556.657 16444406.044 9612749.721 10 0 60112 48600.00000 0 -16144395.157 15381903.779 12433923.472 10 0 60112 49500.00000 0 -15207198.985 13969340.693 15014219.488 10 0 60112 50400.00000 0 -14248175.585 12221283.162 17303654.218 10 0 60112 51300.00000 0 -13324100.018 10164972.204 19257863.341 10 0 60112 52200.00000 0 -12486852.373 7839435.990 20838954.622 10 0 60112 53100.00000 0 -11781177.541 5294117.465 22016237.672 10 0 60112 54000.00000 0 -11242760.759 2587072.546 22766817.189 10 0 60112 54900.00000 0 -10896699.213 -217188.088 23076038.631 10 0 60112 55800.00000 0 -10756433.679 -3050125.839 22937777.800 10 0 60112 56700.00000 0 -10823185.261 -5841770.816 22354568.515 10 0 60112 57600.00000 0 -11085921.381 -8523382.186 21337565.302 10 0 60112 58500.00000 0 -11521853.383 -11030063.172 19906340.859 10 0 60112 59400.00000 0 -12097445.917 -13303223.111 18088521.032 10 0 60112 60300.00000 0 -12769896.873 -15292784.852 15919262.980 10 0 60112 61200.00000 0 -13489026.656 -16959045.731 13440585.314 10 0 60112 62100.00000 0 -14199498.058 -18274114.438 10700561.923 10 0 60112 63000.00000 0 -14843273.595 -19222863.401 7752394.170 10 0 60112 63900.00000 0 -15362206.519 -19803356.351 4653378.900 10 0 60112 64800.00000 0 -15700655.512 -20026732.803 1463792.173 10 0 60112 65700.00000 0 -15808011.504 -19916554.110 -1754289.279 10 0 60112 66600.00000 0 -15641028.293 -19507638.740 -4938205.143 10 0 60112 67500.00000 0 -15165856.735 -18844436.331 -8025942.421 10 0 60112 68400.00000 0 -14359694.637 -17979009.904 -10957354.885 10 0 60112 69300.00000 0 -13211980.912 -16968712.535 -13675345.954 10 0 60112 70200.00000 0 -11725081.978 -15873657.828 -16126990.732 10 0 60112 71100.00000 0 -9914440.162 -14754092.314 -18264574.323 10 0 60112 72000.00000 0 -7808176.869 -13667781.878 -20046525.450 10 0 60112 72900.00000 0 -5446166.580 -12667523.433 -21438226.885 10 0 60112 73800.00000 0 -2878620.074 -11798887.323 -22412686.944 10 0 60112 74700.00000 0 -164236.106 -11098285.771 -22951059.305 10 0 60112 75600.00000 0 2632001.326 -10591448.422 -23043001.686 10 0 60112 76500.00000 0 5441288.250 -10292368.459 -22686867.205 10 0 60112 77400.00000 0 8193625.914 -10202762.649 -21889725.524 10 0 60112 78300.00000 0 10820496.900 -10312066.800 -20667214.267 10 0 60112 79200.00000 0 13257481.395 -10597965.493 -19043224.336 10 0 60112 80100.00000 0 15446705.475 -11027432.479 -17049425.921 10 0 60112 81000.00000 0 17339020.659 -11558236.760 -14724644.935 10 0 60112 81900.00000 0 18895825.264 -12140849.899 -12114102.343 10 0 60112 82800.00000 0 20090453.187 -12720673.440 -9268531.492 10 0 60112 83700.00000 0 20909073.851 -13240492.023 -6243190.713 10 0 60112 84600.00000 0 21351067.499 -13643048.495 -3096790.468 10 0 60112 85500.00000 0 21428861.810 -13873632.353 109644.096 10 0 60113 0.00000 0 21167238.335 -13882572.460 3313952.890 10 0 60113 900.00000 0 20602138.972 -13627529.080 6454041.956 10 0 60113 1800.00000 0 19779024.027 -13075488.871 9469078.486 10 0 60113 2700.00000 0 18750850.962 -12204378.942 12300662.837 10 0 60113 3600.00000 0 17575759.275 -11004231.911 14893951.063 10 0 60113 4500.00000 0 16314558.481 -9477852.739 17198708.639 10 0 60113 5400.00000 0 15028124.216 -7640958.650 19170275.476 10 0 60113 6300.00000 0 13774810.983 -5521785.227 20770424.421 10 0 60113 7200.00000 0 12607989.199 -3160173.723 21968097.384 10 0 60113 8100.00000 0 11573808.901 -606175.956 22740005.537 10 0 60113 9000.00000 0 10709283.031 2081767.127 23071082.429 10 0 60113 9900.00000 0 10040770.056 4838999.467 22954781.364 10 0 60113 10800.00000 0 9582919.215 7597088.251 22393211.097 10 0 60113 11700.00000 0 9338122.662 10286427.215 21397106.622 10 0 60113 12600.00000 0 9296497.879 12838898.390 19985634.703 10 0 60113 13500.00000 0 9436401.761 15190482.907 18186036.704 10 0 60113 14400.00000 0 9725455.560 17283713.090 16033114.289 10 0 60113 15300.00000 0 10122038.456 19069864.034 13568566.584 10 0 60113 16200.00000 0 10577187.521 20510793.193 10840190.400 10 0 60113 17100.00000 0 11036824.411 21580350.753 7900958.050 10 0 60113 18000.00000 0 11444214.783 22265301.134 4807990.070 10 0 60113 18900.00000 0 11742556.106 22565716.395 1621442.635 10 0 60113 19800.00000 0 11877583.495 22494824.516 -1596668.405 10 0 60113 20700.00000 0 11800081.995 22078318.690 -4783683.250 10 0 60113 21600.00000 0 11468197.355 21353156.781 -7877528.903 10 0 60113 22500.00000 0 10849445.692 20365902.025 -10817939.760 10 0 60113 23400.00000 0 9922335.183 19170675.703 -13547642.866 10 0 60113 24300.00000 0 8677529.541 17826809.188 -16013483.515 10 0 60113 25200.00000 0 7118502.608 16396295.543 -18167468.251 10 0 60113 26100.00000 0 5261655.278 14941149.246 -19967704.146 10 0 60113 27000.00000 0 3135888.886 13520786.256 -21379215.763 10 0 60113 27900.00000 0 781652.371 12189535.351 -22374623.845 10 0 60113 28800.00000 0 -1750497.183 10994385.739 -22934672.889 10 0 60113 29700.00000 0 -4401760.610 9973065.406 -23048597.915 10 0 60113 30600.00000 0 -7107311.476 9152530.292 -22714324.114 10 0 60113 31500.00000 0 -9798767.333 8547926.708 -21938496.328 10 0 60113 32400.00000 0 -12406814.648 8162069.156 -20736338.689 10 0 60113 33300.00000 0 -14863878.448 7985453.933 -19131347.883 10 0 60113 34200.00000 0 -17106726.081 7996806.229 -17154826.732 10 0 60113 35100.00000 0 -19078897.474 8164136.138 -14845267.647 10 0 60113 36000.00000 0 -20732861.685 8446257.623 -12247598.317 10 0 60113 36900.00000 0 -22031811.061 8794705.268 -9412304.607 10 0 60113 37800.00000 0 -22951019.513 9155967.073 -6394447.837 10 0 60113 38700.00000 0 -23478709.696 9473938.467 -3252595.604 10 0 60113 39600.00000 0 -23616394.293 9692493.657 -47686.979 10 0 60113 40500.00000 0 -23378678.574 9758065.649 3158145.997 10 0 60113 41400.00000 0 -22792533.778 9622126.136 6302777.815 10 0 60113 42300.00000 0 -21896072.770 9243460.750 9325286.956 10 0 60113 43200.00000 0 -20736880.040 8590143.892 12167128.542 10 0 60113 44100.00000 0 -19369966.393 7641129.953 14773259.995 10 0 60113 45000.00000 0 -17855434.054 6387393.802 17093198.585 10 0 60113 45900.00000 0 -16255949.637 4832572.081 19081991.190 10 0 60113 46800.00000 0 -14634130.130 2993077.534 20701078.342 10 0 60113 47700.00000 0 -13049950.423 897680.317 21919036.640 10 0 60113 48600.00000 0 -11558279.836 -1413427.878 22712185.843 10 0 60113 49500.00000 0 -10206649.655 -3890049.773 23065049.368 10 0 60113 50400.00000 0 -9033344.189 -6473821.676 22970659.427 10 0 60113 51300.00000 0 -8065894.513 -9100401.509 22430700.709 10 0 60113 52200.00000 0 -7320037.539 -11701916.784 21455489.264 10 0 60113 53100.00000 0 -6799183.980 -14209572.558 20063786.070 10 0 60113 54000.00000 0 -6494417.706 -16556312.353 18282447.733 10 0 60113 54900.00000 0 -6385026.968 -18679422.316 16145919.697 10 0 60113 55800.00000 0 -6439545.732 -20522970.572 13695580.461 10 0 60113 56700.00000 0 -6617261.813 -22039980.031 10978948.227 10 0 60113 57600.00000 0 -6870128.577 -23194243.461 8048764.368 10 0 60113 58500.00000 0 -7144999.596 -23961704.148 4961970.904 10 0 60113 59400.00000 0 -7386091.469 -24331343.414 1778601.652 10 0 60113 60300.00000 0 -7537569.874 -24305536.958 -1439391.142 10 0 60113 61200.00000 0 -7546148.192 -23899864.362 -4629351.123 10 0 60113 62100.00000 0 -7363587.148 -23142379.467 -7729148.425 10 0 60113 63000.00000 0 -6948987.859 -22072372.379 -10678401.354 10 0 60113 63900.00000 0 -6270779.391 -20738675.669 -13419663.964 10 0 60113 64800.00000 0 -5308314.930 -19197586.890 -15899555.149 10 0 60113 65700.00000 0 -4053007.485 -17510495.843 -18069806.208 10 0 60113 66600.00000 0 -2508955.821 -15741317.557 -19888205.692 10 0 60113 67500.00000 0 -693033.159 -13953839.916 -21319422.758 10 0 60113 68400.00000 0 1365565.898 -12209098.145 -22335692.980 10 0 60113 69300.00000 0 3626301.676 -10562886.810 -22917353.589 10 0 60113 70200.00000 0 6038748.373 -9063513.686 -23053218.307 10 0 60113 71100.00000 0 8544474.774 -7749889.101 -22740785.283 10 0 60113 72000.00000 0 11079268.240 -6650029.924 -21986274.923 10 0 60113 72900.00000 0 13575609.300 -5780039.442 -20804497.759 10 0 60113 73800.00000 0 15965293.865 -5143604.201 -19218555.701 10 0 60113 74700.00000 0 18182094.113 -4732027.036 -17259383.167 10 0 60113 75600.00000 0 20164347.659 -4524792.936 -14965137.552 10 0 60113 76500.00000 0 21857367.831 -4490642.101 -12380451.265 10 0 60113 77400.00000 0 23215575.375 -4589103.387 -9555560.195 10 0 60113 78300.00000 0 24204263.711 -4772422.146 -6545325.688 10 0 60113 79200.00000 0 24800925.195 -4987800.151 -3408169.129 10 0 60113 80100.00000 0 24996084.164 -5179852.379 -204939.870 10 0 60113 81000.00000 0 24793603.143 -5293176.533 3002261.614 10 0 60113 81900.00000 0 24210450.507 -5274926.735 6151282.659 10 0 60113 82800.00000 0 23275940.263 -5077282.741 9181116.448 10 0 60113 83700.00000 0 22030476.452 -4659710.661 12033076.319 10 0 60113 84600.00000 0 20523855.100 -3990919.942 14651924.183 10 0 60113 85500.00000 0 18813194.811 -3050434.156 16986931.831 10 0 60114 0.00000 0 16960582.406 -1829709.339 18992855.231 10 0 60114 900.00000 0 15030530.363 -332751.559 20630804.814 10 0 60114 1800.00000 0 13087353.899 1423791.505 21868993.078 10 0 60114 2700.00000 0 11192572.840 3411072.428 22683349.329 10 0 60114 3600.00000 0 9402448.019 5589001.099 23057987.367 10 0 60114 4500.00000 0 7765752.986 7907679.685 22985518.377 10 0 60114 5400.00000 0 6321873.244 10309257.770 22467202.610 10 0 60114 6300.00000 0 5099311.667 12730132.596 21512936.357 10 0 60114 7200.00000 0 4114662.167 15103404.733 20141073.596 10 0 60114 8100.00000 0 3372094.369 17361488.607 18378084.579 10 0 60114 9000.00000 0 2863371.044 19438770.323 16258056.619 10 0 60114 9900.00000 0 2568397.778 21274202.615 13822045.403 10 0 60114 10800.00000 0 2456282.159 22813728.755 11117288.108 10 0 60114 11700.00000 0 2486858.052 24012433.713 8196292.573 10 0 60114 12600.00000 0 2612610.779 24836331.764 5115819.570 10 0 60114 13500.00000 0 2780921.543 25263714.588 1935777.733 10 0 60114 14400.00000 0 2936535.572 25286002.191 -1281947.152 10 0 60114 15300.00000 0 3024148.446 24908059.878 -4474704.994 10 0 60114 16200.00000 0 2990999.687 24147967.210 -7580311.762 10 0 60114 17100.00000 0 2789362.095 23036248.238 -10538272.202 10 0 60114 18000.00000 0 2378819.608 21614595.435 -13290969.666 10 0 60114 18900.00000 0 1728235.487 19934141.372 -15784798.673 10 0 60114 19800.00000 0 817325.860 18053351.529 -17971217.046 10 0 60114 20700.00000 0 -362229.265 16035627.710 -19807696.315 10 0 60114 21600.00000 0 -1806185.595 13946723.610 -21258551.502 10 0 60114 22500.00000 0 -3497670.935 11852081.749 -22295634.069 10 0 60114 23400.00000 0 -5407661.608 9814203.950 -22898874.808 10 0 60114 24300.00000 0 -7495979.268 7890165.594 -23056666.736 10 0 60114 25200.00000 0 -9712766.518 6129377.342 -22766081.272 10 0 60114 26100.00000 0 -12000379.629 4571687.148 -22032914.372 10 0 60114 27000.00000 0 -14295619.257 3245900.661 -20871562.601 10 0 60114 27900.00000 0 -16532206.120 2168780.219 -19304732.350 10 0 60114 28800.00000 0 -18643398.396 1344562.381 -17362988.532 10 0 60114 29700.00000 0 -20564641.946 765012.099 -15084152.114 10 0 60114 30600.00000 0 -22236143.185 410009.093 -12512558.560 10 0 60114 31500.00000 0 -23605257.819 248639.787 -9698191.919 10 0 60114 32400.00000 0 -24628596.390 240747.108 -6695711.571 10 0 60114 33300.00000 0 -25273759.560 338871.383 -3563390.592 10 0 60114 34200.00000 0 -25520631.476 490499.440 -361986.424 10 0 60114 35100.00000 0 -25362178.086 640526.257 2846434.295 10 0 60114 36000.00000 0 -24804717.891 733824.905 5999694.129 10 0 60114 36900.00000 0 -23867654.568 717816.116 9036703.421 10 0 60114 37800.00000 0 -22582683.228 544929.162 11898636.266 10 0 60114 38700.00000 0 -20992503.787 174850.337 14530061.625 10 0 60114 39600.00000 0 -19149095.257 -423535.593 16880008.336 10 0 60114 40500.00000 0 -17111622.721 -1270592.796 18902944.197 10 0 60114 41400.00000 0 -14944063.680 -2374836.226 20559651.034 10 0 60114 42300.00000 0 -12712651.913 -3732334.771 21817979.587 10 0 60114 43200.00000 0 -10483244.229 -5326641.777 22653470.344 10 0 60114 44100.00000 0 -8318718.595 -7129257.414 23049828.776 10 0 60114 45000.00000 0 -6276510.774 -9100605.346 22999245.971 10 0 60114 45900.00000 0 -4406390.945 -11191485.018 22502558.311 10 0 60114 46800.00000 0 -2748571.972 -13344941.117 21569242.561 10 0 60114 47700.00000 0 -1332227.575 -15498474.255 20217245.588 10 0 60114 48600.00000 0 -174481.800 -17586502.515 18472650.852 10 0 60114 49500.00000 0 720088.086 -19542972.545 16369186.770 10 0 60114 50400.00000 0 1359414.416 -21304012.043 13947585.113 10 0 60114 51300.00000 0 1763369.083 -22810513.141 11254800.619 10 0 60114 52200.00000 0 1962684.453 -24010538.329 8343105.866 10 0 60114 53100.00000 0 1997410.693 -24861447.419 5269078.381 10 0 60114 54000.00000 0 1914974.837 -25331655.234 2092499.369 10 0 60114 54900.00000 0 1767924.176 -25401944.933 -1124814.296 10 0 60114 55800.00000 0 1611450.338 -25066280.476 -4320221.425 10 0 60114 56700.00000 0 1500800.166 -24332082.868 -7431486.634 10 0 60114 57600.00000 0 1488684.578 -23219957.730 -10398004.043 10 0 60114 58500.00000 0 1622796.870 -21762885.167 -13161989.343 10 0 60114 59400.00000 0 1943547.324 -20004905.937 -15669615.746 10 0 60114 60300.00000 0 2482111.611 -17999359.458 -17872070.612 10 0 60114 61200.00000 0 3258877.017 -15806748.260 -19726511.317 10 0 60114 62100.00000 0 4282353.276 -13492319.191 -21196901.361 10 0 60114 63000.00000 0 5548594.863 -11123463.498 -22254710.351 10 0 60114 63900.00000 0 7041159.667 -8767045.169 -22879464.500 10 0 60114 64800.00000 0 8731606.111 -6486769.537 -23059137.525 10 0 60114 65700.00000 0 10580507.980 -4340701.921 -22790375.056 10 0 60114 66600.00000 0 12538944.390 -2379039.337 -22078549.093 10 0 60114 67500.00000 0 14550402.421 -642227.241 -20937642.295 10 0 60114 68400.00000 0 16553012.724 840501.638 -19389965.158 10 0 60114 69300.00000 0 18482024.577 2052107.153 -17465712.300 10 0 60114 70200.00000 0 20272417.016 2988201.475 -15202367.019 10 0 60114 71100.00000 0 21861537.095 3656971.723 -12643966.132 10 0 60114 72000.00000 0 23191655.307 4078570.957 -9840239.697 10 0 60114 72900.00000 0 24212331.794 4284005.196 -6845642.530 10 0 60114 73800.00000 0 24882494.981 4313565.089 -3718296.413 10 0 60114 74700.00000 0 25172146.286 4214869.722 -518863.597 10 0 60114 75600.00000 0 25063620.293 4040606.124 2690626.596 10 0 60114 76500.00000 0 24552348.303 3846060.479 5847975.493 10 0 60114 77400.00000 0 23647093.866 3686545.556 8892014.085 10 0 60114 78300.00000 0 22369650.870 3614832.971 11763780.549 10 0 60114 79200.00000 0 20754016.953 3678698.436 14407653.981 10 0 60114 80100.00000 0 18845076.715 3918683.287 16772423.050 10 0 60114 81000.00000 0 16696849.276 4366166.417 18812269.680 10 0 60114 81900.00000 0 14370372.554 5041827.798 20487649.555 10 0 60114 82800.00000 0 11931311.471 5954568.458 21766053.195 10 0 60114 83700.00000 0 9447388.437 7100932.967 22622633.615 10 0 60114 84600.00000 0 6985741.671 8465059.739 23040688.887 10 0 60114 85500.00000 0 4610319.873 10019162.719 23011990.498 10 0 60115 0.00000 0 2379420.448 11724525.941 22536951.047 10 0 60115 900.00000 0 343471.384 13532972.316 21624627.226 10 0 60115 1800.00000 0 -1456848.852 15388744.971 20292557.879 10 0 60115 2700.00000 0 -2992079.647 17230727.431 18566438.276 10 0 60115 3600.00000 0 -4244970.893 18994909.176 16479636.129 10 0 60115 4500.00000 0 -5210959.758 20616995.413 14072557.145 10 0 60115 5400.00000 0 -5898111.424 22035052.254 11391871.184 10 0 60115 6300.00000 0 -6326526.146 23192076.429 8489612.921 10 0 60115 7200.00000 0 -6527237.593 24038381.117 5422173.834 10 0 60115 8100.00000 0 -6540649.062 24533696.712 2249204.801 10 0 60115 9000.00000 0 -6414573.999 24648896.808 -967549.170 10 0 60115 9900.00000 0 -6201964.479 24367275.323 -4165458.740 10 0 60115 10800.00000 0 -5958424.801 23685319.522 -7282240.035 10 0 60115 11700.00000 0 -5739616.925 22612945.158 -10257179.282 10 0 60115 12600.00000 0 -5598669.179 21173182.878 -13032327.029 10 0 60115 13500.00000 0 -5583699.662 19401328.565 -15553637.458 10 0 60115 14400.00000 0 -5735560.752 17343593.162 -17772029.451 10 0 60115 15300.00000 0 -6085901.604 15055308.907 -19644347.931 10 0 60115 16200.00000 0 -6655631.654 12598767.645 -21134206.290 10 0 60115 17100.00000 0 -7453850.886 10040782.286 -22212693.414 10 0 60115 18000.00000 0 -8477292.470 7450073.990 -22858931.791 10 0 60115 18900.00000 0 -9710301.531 4894594.507 -23060476.376 10 0 60115 19800.00000 0 -11125350.900 2438895.457 -22813547.243 10 0 60115 20700.00000 0 -12684072.062 141653.881 -22123092.303 10 0 60115 21600.00000 0 -14338757.766 -1946543.613 -21002679.794 10 0 60115 22500.00000 0 -16034273.043 -3785067.044 -19474223.423 10 0 60115 23400.00000 0 -17710294.316 -5344683.421 -17567546.240 10 0 60115 24300.00000 0 -19303782.685 -6608513.155 -15319792.288 10 0 60115 25200.00000 0 -20751587.782 -7572464.820 -12774697.883 10 0 60115 26100.00000 0 -21993073.267 -8245132.306 -9981737.044 10 0 60115 27000.00000 0 -22972654.224 -8647160.946 -6995157.835 10 0 60115 27900.00000 0 -23642140.537 -8810111.278 -3872928.459 10 0 60115 28800.00000 0 -23962788.475 -8774869.949 -675613.618 10 0 60115 29700.00000 0 -23906975.036 -8589676.066 2534797.104 10 0 60115 30600.00000 0 -23459425.349 -8307847.112 5696086.275 10 0 60115 31500.00000 0 -22617942.113 -7985300.885 8747008.071 10 0 60115 32400.00000 0 -21393606.808 -7677978.188 11628467.298 10 0 60115 33300.00000 0 -19810444.285 -7439274.863 14284655.716 10 0 60115 34200.00000 0 -17904564.540 -7317591.158 16664124.265 10 0 60115 35100.00000 0 -15722817.031 -7354101.331 18720771.262 10 0 60115 36000.00000 0 -13321012.791 -7580837.131 20414728.274 10 0 60115 36900.00000 0 -10761787.350 -8019165.679 21713127.335 10 0 60115 37800.00000 0 -8112192.056 -8678725.921 22590735.369 10 0 60115 38700.00000 0 -5441112.434 -9556868.950 23030444.078 10 0 60115 39600.00000 0 -2816619.353 -10638626.661 23023606.006 10 0 60115 40500.00000 0 -303361.527 -11897211.442 22570210.175 10 0 60115 41400.00000 0 2039893.668 -13295027.688 21678893.391 10 0 60115 42300.00000 0 4162469.898 -14785154.598 20366786.145 10 0 60115 43200.00000 0 6023650.977 -16313239.984 18659194.960 10 0 60115 44100.00000 0 7594132.021 -17819727.435 16589125.986 10 0 60115 45000.00000 0 8856992.262 -19242324.733 14196657.715 10 0 60115 45900.00000 0 9808148.916 -20518610.792 11528173.662 10 0 60115 46800.00000 0 10456272.982 -21588671.925 8635468.810 10 0 60115 47700.00000 0 10822170.441 -22397656.259 5574746.496 10 0 60115 48600.00000 0 10937654.975 -22898137.994 2405524.907 10 0 60115 49500.00000 0 10843960.029 -23052190.681 -810525.396 10 0 60115 50400.00000 0 10589757.854 -22833080.583 -4010789.671 10 0 60115 51300.00000 0 10228870.213 -22226507.145 -7132938.411 10 0 60115 52200.00000 0 9817768.814 -21231336.701 -10116152.860 10 0 60115 53100.00000 0 9412972.745 -19859797.183 -12902321.351 10 0 60115 54000.00000 0 9068454.617 -18137124.648 -15437181.906 10 0 60115 54900.00000 0 8833166.748 -16100675.884 -17671387.697 10 0 60115 55800.00000 0 8748793.422 -13798544.148 -19561473.771 10 0 60115 56700.00000 0 8847825.362 -11287736.214 -21070705.720 10 0 60115 57600.00000 0 9152038.557 -8631987.366 -22169793.677 10 0 60115 58500.00000 0 9671442.072 -5899306.085 -22837457.962 10 0 60115 59400.00000 0 10403739.308 -3159351.292 -23060835.914 10 0 60115 60300.00000 0 11334325.249 -480751.604 -22835722.727 10 0 60115 61200.00000 0 12436819.430 2071521.873 -22166642.482 10 0 60115 62100.00000 0 13674111.741 4438620.387 -21066748.840 10 0 60115 63000.00000 0 14999876.639 6570018.408 -19557558.175 10 0 60115 63900.00000 0 16360491.675 8425360.236 -17668521.047 10 0 60115 64800.00000 0 17697279.446 9975877.155 -15436440.940 10 0 60115 65700.00000 0 18948978.619 11205318.048 -12904751.997 10 0 60115 66600.00000 0 20054340.206 12110356.791 -10122670.138 10 0 60115 67500.00000 0 20954740.160 12700461.603 -7144234.261 10 0 60115 68400.00000 0 21596698.836 12997234.016 -4027256.256 10 0 60115 69300.00000 0 21934201.792 13033247.104 -832200.294 10 0 60115 70200.00000 0 21930724.894 12850433.459 2378986.928 10 0 60115 71100.00000 0 21560879.054 12498091.946 5544072.434 10 0 60115 72000.00000 0 20811605.912 12030598.021 8601736.749 10 0 60115 72900.00000 0 19682874.448 11504914.464 11492754.363 10 0 60115 73800.00000 0 18187849.318 10978007.453 14161132.558 10 0 60115 74700.00000 0 16352523.542 10504276.588 16555187.175 10 0 60115 75600.00000 0 14214830.289 10133106.670 18628535.286 10 0 60115 76500.00000 0 11823269.893 9906643.761 20340986.428 10 0 60115 77400.00000 0 9235108.122 9857888.688 21659315.920 10 0 60115 78300.00000 0 6514219.228 10009187.874 22557906.041 10 0 60115 79200.00000 0 3728661.779 10371185.024 23019243.188 10 0 60115 80100.00000 0 948086.338 10942278.109 23034261.625 10 0 60115 81000.00000 0 -1758919.107 11708605.349 22602527.060 10 0 60115 81900.00000 0 -4327437.267 12644561.981 21732256.035 10 0 60115 82800.00000 0 -6698676.163 13713827.663 20440169.915 10 0 60115 83700.00000 0 -8822169.205 14870863.014 18751185.180 10 0 60115 84600.00000 0 -10657629.804 16062814.079 16697944.676 10 0 60115 85500.00000 0 -12176383.512 17231746.075 14320197.537 99